Milwaukee, WI

6:48 PM CST on December 05, 2016 (GMT -0600)
Gen Mitchell International

Weather History for KMKE - March, 2012

Change the Weather History Date:

Sunday, March 25, 2012

  Actual Average Record
Temperature  
Mean Temperature 49 °F 38 °F  
Max Temperature 61 °F 46 °F 79 °F (2007)
Min Temperature 37 °F 30 °F 0 °F (1960)
Degree Days  
Heating Degree Days 16 27  
Month to date heating degree days 380 775  
Since 1 July heating degree days 4635 5755  
Cooling Degree Days 0 0  
Month to date cooling degree days 11 0  
Year to date cooling degree days 11 0  
Moisture  
Dew Point 44 °F    
Average Humidity 86    
Maximum Humidity 100    
Minimum Humidity 71    
Precipitation  
Precipitation 0.00 in 0.09 in 1.28 in (1920)
Month to date precipitation 2.81 1.72  
Year to date precipitation 5.66 5.13  
Snow  
Snow 0.00 in 0.20 in 5.20 in (1933)
Month to date snowfall 5.1 6.2  
Since 1 July snowfall 29.6 44.0  
Snow Depth 0.00 in    
Sea Level Pressure  
Sea Level Pressure 30.06 in    
Wind  
Wind Speed 10 mph (NNE)    
Max Wind Speed 26 mph    
Max Gust Speed 37 mph    
Visibility 7 miles    
Events Fog    
T = Trace of Precipitation, MM = Missing Value Source: NWS Daily Summary

Daily Weather History Graph

Daily Weather History Graph

Search for Another Location

Airport or City:

Trip Planner

Search our weather history database for the weather conditions in past years. The results will help you decide how hot, cold, wet, or windy it might be!

Date:

Astronomy

Mar. 25, 2012 Rise Set
Actual Time 6:45 AM CDT 7:10 PM CDT
Civil Twilight 6:16 AM CDT 7:38 PM CDT
Nautical Twilight 5:43 AM CDT 8:12 PM CDT
Astronomical Twilight 5:08 AM CDT 8:46 PM CDT
Moon 7:51 AM CDT (3/25) 10:32 PM CDT (3/25)
Length of Visible Light 13h 22m
Length of Day
12h 25m
Waxing Crescent, 9% of the Moon is Illuminated
Mar 25
Waxing Crescent
Mar 30
First Quarter
Apr 6
Full
Apr 13
Last Quarter
Apr 21
New

Hourly Weather History & Observations

Time (CDT) Temp. Windchill Dew Point Humidity Pressure Visibility Wind Dir Wind Speed Gust Speed Precip Events Conditions
12:52 AM 52.0 °F - 48.9 °F 89% 29.96 in 2.5 mi WNW 4.6 mph - N/A   Mostly Cloudy
1:11 AM 51.8 °F - 48.2 °F 88% 29.95 in 3.0 mi WNW 3.5 mph - N/A   Overcast
1:52 AM 53.1 °F - 50.0 °F 89% 29.96 in 4.0 mi Calm Calm - N/A   Overcast
2:52 AM 53.1 °F - 50.0 °F 89% 29.96 in 4.0 mi Calm Calm - N/A   Overcast
3:52 AM 51.8 °F - 50.0 °F 94% 29.94 in 4.0 mi Calm Calm - N/A   Mostly Cloudy
4:32 AM 51.8 °F - 48.2 °F 88% 29.95 in 2.5 mi SSE 3.5 mph - N/A   Overcast
4:52 AM 52.0 °F - 51.1 °F 97% 29.97 in 2.5 mi Calm Calm - N/A   Overcast
5:29 AM 53.6 °F - 50.0 °F 88% 29.97 in 3.0 mi Calm Calm - N/A   Overcast
5:52 AM 52.0 °F - 50.0 °F 93% 29.99 in 3.0 mi Calm Calm - N/A   Mostly Cloudy
6:52 AM 50.0 °F - 48.2 °F 94% 30.00 in 2.0 mi Calm Calm - N/A Fog Patches of Fog
7:52 AM 53.1 °F - 51.1 °F 93% 30.03 in 2.5 mi Calm Calm - N/A   Partly Cloudy
8:22 AM 57.2 °F - 51.8 °F 82% 30.03 in 3.0 mi NW 3.5 mph - N/A   Haze
8:52 AM 59.0 °F - 53.1 °F 81% 30.04 in 4.0 mi NNW 6.9 mph - N/A   Haze
9:52 AM 60.1 °F - 52.0 °F 75% 30.05 in 7.0 mi North 10.4 mph - N/A   Partly Cloudy
10:52 AM 57.0 °F - 50.0 °F 77% 30.07 in 7.0 mi NNE 18.4 mph - N/A   Scattered Clouds
11:52 AM 53.1 °F - 45.0 °F 74% 30.08 in 8.0 mi NNE 18.4 mph 25.3 mph N/A   Mostly Cloudy
12:06 PM 53.6 °F - 44.6 °F 72% 30.07 in 10.0 mi NNE 18.4 mph 23.0 mph N/A   Mostly Cloudy
12:19 PM 53.6 °F - 44.6 °F 72% 30.07 in 10.0 mi NNE 13.8 mph 24.2 mph N/A   Scattered Clouds
12:39 PM 51.8 °F - 44.6 °F 76% 30.07 in 8.0 mi NNE 15.0 mph - N/A   Mostly Cloudy
12:52 PM 51.1 °F - 44.1 °F 77% 30.09 in 8.0 mi NNE 11.5 mph 20.7 mph N/A   Mostly Cloudy
1:52 PM 48.9 °F - 42.1 °F 77% 30.09 in 10.0 mi NNE 13.8 mph 18.4 mph N/A   Overcast
2:11 PM 48.2 °F - 41.0 °F 76% 30.08 in 10.0 mi NNE 11.5 mph - N/A   Overcast
2:52 PM 50.0 °F - 41.0 °F 71% 30.09 in 10.0 mi NNE 15.0 mph 18.4 mph N/A   Overcast
3:52 PM 48.9 °F - 41.0 °F 74% 30.09 in 10.0 mi NNE 9.2 mph - N/A   Mostly Cloudy
4:29 PM 46.4 °F 41.5 °F 39.2 °F 76% 30.07 in 10.0 mi NE 10.4 mph - N/A   Scattered Clouds
4:52 PM 46.9 °F - 39.9 °F 77% 30.09 in 10.0 mi NE 10.4 mph - N/A   Scattered Clouds
5:52 PM 45.0 °F 41.8 °F 39.0 °F 80% 30.10 in 10.0 mi NE 5.8 mph - N/A   Scattered Clouds
6:52 PM 43.0 °F 38.2 °F 37.0 °F 80% 30.11 in 10.0 mi NNE 8.1 mph - N/A   Scattered Clouds
7:52 PM 42.1 °F 37.7 °F 37.0 °F 82% 30.13 in 10.0 mi NNE 6.9 mph - N/A   Scattered Clouds
8:52 PM 41.0 °F 31.9 °F 35.1 °F 79% 30.17 in 10.0 mi NNE 19.6 mph 26.5 mph N/A   Mostly Cloudy
9:52 PM 41.0 °F 31.9 °F 35.1 °F 79% 30.21 in 10.0 mi NNE 19.6 mph 33.4 mph N/A   Overcast
10:52 PM 39.0 °F 29.0 °F 32.0 °F 76% 30.24 in 10.0 mi NNE 20.7 mph 31.1 mph N/A   Mostly Cloudy
11:08 PM 37.4 °F 26.6 °F 32.0 °F 81% 30.23 in 10.0 mi NNE 21.9 mph 32.2 mph N/A   Mostly Cloudy
11:52 PM 37.9 °F 27.3 °F 32.0 °F 79% 30.26 in 10.0 mi NNE 21.9 mph 32.2 mph N/A   Overcast